Location: Unspecified
(41.1850°N, 73.2650°W)
Time: 21:19:40
(UTC+00:00)

Resurs 1-3 - Pass Details

Date: 14 December 2025
Orbit: 613 x 615 km, 97.7° (Epoch: 12 January)

Event Time Altitude Azimuth Distance (km) Brightness Sun altitude
Rises 23:42:02 0° 178° (S) 2,869 7.1 -24.9°
Reaches altitude 10° 23:44:15 10° 183° (S) 1,969 6.3 -25.3°
Maximum altitude 23:48:25 52° 260° (W) 765 4.3 -26.1°
Drops below altitude 10° 23:52:39 10° 338° (NNW) 1,984 6.3 -26.9°
Sets 23:54:53 0° 343° (NNW) 2,893 7.1 -27.3°
